Sanborn, NY

7:58 PM EST on January 21, 2017 (GMT -0500)
Niagara Falls

Weather History for KIAG - December, 2012

Change the Weather History Date:

Saturday, December 22, 2012

  Actual Average Record
Temperature  
Mean Temperature 30 °F -  
Max Temperature 33 °F 32 °F 57 °F (1990)
Min Temperature 28 °F 20 °F 4 °F (1989)
Degree Days  
Heating Degree Days 34    
Moisture  
Dew Point 22 °F    
Average Humidity 71    
Maximum Humidity 86    
Minimum Humidity 61    
Precipitation  
Precipitation 0.00 in - - ()
Snow  
Snow 0.00 in - - ()
Snow Depth 1.00 in    
Sea Level Pressure  
Sea Level Pressure 29.78 in    
Wind  
Wind Speed 24 mph (WNW)    
Max Wind Speed 32 mph    
Max Gust Speed 41 mph    
Visibility 9 miles    
Events Snow    
Averages and records for this station are not official NWS values.
T = Trace of Precipitation, MM = Missing Value Source: NWS Daily Summary

Daily Weather History Graph

Daily Weather History Graph

Search for Another Location

Airport or City:

Trip Planner

Search our weather history database for the weather conditions in past years. The results will help you decide how hot, cold, wet, or windy it might be!

Date:

Astronomy

Dec. 22, 2012 Rise Set
Actual Time 7:44 AM EST 4:44 PM EST
Civil Twilight 7:12 AM EST 5:17 PM EST
Nautical Twilight 6:36 AM EST 5:52 PM EST
Astronomical Twilight 6:01 AM EST 6:27 PM EST
Moon 1:05 PM EST 2:23 AM EST
Length of Visible Light 10h 04m
Length of Day
8h 59m
Waxing Gibbous, 73% of the Moon is Illuminated
Dec 22
Waxing Gibbous
Dec 28
Full
Jan 4
Last Quarter
Jan 11
New
Jan 18
First Quarter

Hourly Weather History & Observations

Time (EST) Temp. Windchill Dew Point Humidity Pressure Visibility Wind Dir Wind Speed Gust Speed Precip Events Conditions
12:16 AM 30.2 °F 14.7 °F 23.0 °F 75% 29.44 in 10.0 mi NW 32.2 mph 41.4 mph N/A   Overcast
12:53 AM 30.9 °F 16.7 °F 23.0 °F 72% 29.50 in 10.0 mi NW 27.6 mph 35.7 mph N/A   Overcast
1:04 AM 30.2 °F 15.2 °F 23.0 °F 75% 29.47 in 10.0 mi NW 29.9 mph 40.3 mph N/A   Overcast
1:53 AM 30.9 °F 17.8 °F 24.1 °F 76% 29.54 in 7.0 mi WNW 23.0 mph 27.6 mph 0.00 in Snow Light Snow
2:53 AM 30.0 °F 17.2 °F 24.1 °F 79% 29.58 in 9.0 mi WNW 20.7 mph 29.9 mph 0.00 in Snow Light Snow
3:53 AM 30.0 °F 15.7 °F 23.0 °F 75% 29.61 in 8.0 mi WNW 26.5 mph 35.7 mph 0.00 in Snow Light Snow
4:53 AM 28.9 °F 14.5 °F 19.9 °F 69% 29.65 in 10.0 mi WNW 25.3 mph 39.1 mph 0.00 in   Overcast
5:53 AM 28.9 °F 14.0 °F 19.9 °F 69% 29.69 in 10.0 mi WNW 27.6 mph 39.1 mph N/A   Overcast
6:53 AM 28.9 °F 14.5 °F 19.0 °F 67% 29.73 in 10.0 mi NW 25.3 mph 34.5 mph N/A   Overcast
7:07 AM 28.4 °F 15.1 °F 19.4 °F 69% 29.70 in 10.0 mi WNW 20.7 mph 35.7 mph N/A   Overcast
7:53 AM 28.9 °F 16.5 °F 21.0 °F 72% 29.77 in 10.0 mi WNW 18.4 mph 31.1 mph N/A   Overcast
7:59 AM 28.4 °F 13.5 °F 21.2 °F 74% 29.73 in 10.0 mi WNW 26.5 mph 32.2 mph 0.00 in Snow Light Snow
8:35 AM 28.4 °F 13.8 °F 19.4 °F 69% 29.75 in 9.0 mi NW 25.3 mph 35.7 mph 0.00 in   Overcast
8:44 AM 28.4 °F 14.7 °F 21.2 °F 74% 29.75 in 10.0 mi WNW 21.9 mph 34.5 mph 0.00 in Snow Light Snow
8:53 AM 28.9 °F 16.1 °F 21.0 °F 72% 29.80 in 8.0 mi WNW 19.6 mph 26.5 mph 0.00 in Snow Light Snow
9:20 AM 28.4 °F 15.1 °F 21.2 °F 74% 29.77 in 9.0 mi NW 20.7 mph 27.6 mph 0.00 in Snow Light Snow
9:53 AM 30.0 °F 16.3 °F 19.9 °F 66% 29.82 in 9.0 mi WNW 24.2 mph 31.1 mph 0.00 in Snow Light Snow
10:53 AM 30.0 °F 16.3 °F 21.0 °F 69% 29.84 in 9.0 mi WNW 24.2 mph 32.2 mph 0.00 in Snow Light Snow
11:19 AM 30.2 °F 16.8 °F 21.2 °F 69% 29.80 in 10.0 mi WNW 23.0 mph 31.1 mph 0.00 in   Mostly Cloudy
11:53 AM 30.9 °F 18.4 °F 21.0 °F 67% 29.84 in 10.0 mi WNW 20.7 mph 28.8 mph 0.00 in   Mostly Cloudy
12:53 PM 32.0 °F 19.8 °F 21.0 °F 64% 29.84 in 10.0 mi WNW 20.7 mph 29.9 mph N/A   Mostly Cloudy
1:53 PM 33.1 °F 21.5 °F 21.9 °F 64% 29.85 in 10.0 mi WNW 19.6 mph 27.6 mph N/A   Mostly Cloudy
2:53 PM 33.1 °F 20.6 °F 21.0 °F 61% 29.87 in 10.0 mi WNW 23.0 mph 33.4 mph N/A   Mostly Cloudy
3:53 PM 32.0 °F 19.5 °F 21.0 °F 64% 29.90 in 10.0 mi WNW 21.9 mph 28.8 mph N/A   Mostly Cloudy
4:53 PM 32.0 °F 19.5 °F 21.9 °F 66% 29.92 in 10.0 mi West 21.9 mph 32.2 mph N/A   Mostly Cloudy
5:53 PM 32.0 °F 20.1 °F 23.0 °F 69% 29.94 in 10.0 mi West 19.6 mph 27.6 mph N/A   Overcast
6:53 PM 30.9 °F 18.7 °F 21.9 °F 69% 29.96 in 10.0 mi West 19.6 mph 33.4 mph N/A   Overcast
7:53 PM 30.9 °F 20.7 °F 23.0 °F 72% 29.96 in 10.0 mi West 13.8 mph 24.2 mph N/A   Mostly Cloudy
8:53 PM 30.9 °F 20.7 °F 23.0 °F 72% 29.97 in 10.0 mi West 13.8 mph - N/A   Overcast
9:53 PM 30.9 °F 19.8 °F 23.0 °F 72% 29.97 in 10.0 mi West 16.1 mph - N/A   Overcast
10:53 PM 30.9 °F 19.1 °F 23.0 °F 72% 29.97 in 10.0 mi WSW 18.4 mph 24.2 mph N/A   Overcast
11:45 PM 28.4 °F 15.8 °F 24.8 °F 86% 29.92 in 2.5 mi WSW 18.4 mph 25.3 mph 0.00 in Snow Light Snow
11:53 PM 28.9 °F 17.7 °F 24.1 °F 82% 29.97 in 3.0 mi WSW 15.0 mph - 0.00 in Snow Light Snow